Simultaneous Nadir Overpasses (SNOs) Predictions

Prediction of SNOs between GOES-17 and LANDSAT-8 Satellite Orbit:

Table of predicted SNOs for the next 14.0 days since TLE Epoch: 10/15/2022
Index Date Time (GOES-17) GOES-17 Lat,Lon LANDSAT-8 Lat,Lon Distance(km) Time Diff (sec)
1 10/16/2022 19:10:52 -0.08,-137.34 -0.76,-134.27 349.36 80
2 10/17/2022 07:32:15 0.08,-137.32 -0.38,-139.46 242.54 80
3 10/19/2022 07:17:25 0.08,-137.31 0.24,-136.50 91.79 80
4 10/19/2022 19:38:41 -0.07,-137.32 0.85,-141.66 493.99 80
5 10/21/2022 07:05:16 0.07,-137.29 0.88,-133.55 425.78 80
6 10/21/2022 19:26:31 -0.07,-137.30 0.21,-138.71 160.09 80
7 10/23/2022 19:17:00 -0.07,-137.28 -0.38,-135.75 173.42 80
8 10/24/2022 07:38:24 0.07,-137.26 -0.74,-140.94 418.69 80
9 10/26/2022 07:26:14 0.07,-137.23 -0.07,-137.99 86.10 80
10 10/28/2022 07:11:23 0.06,-137.19 0.55,-135.04 245.60 80
11 10/28/2022 19:32:38 -0.06,-137.19 0.60,-140.18 341.15 80
